Regional Weather Roundup
Issued by NWS

Home | Current Version | Previous Version | Graphics & Text | Print | Product List | Glossary On
Versions: 1 2 3 4 5 6 7 8 9 10 11 12 13 14 15 16 17 18 19 20 21 22 23 24 25 26 27 28 29 30 31 32 33 34 35 36 37 38 39 40 41 42 43 44 45 46 47 48 49 50
701
ASUS43 KOAX 272102
RWRNE

WEATHER ROUNDUP FOR NEBRASKA
NATIONAL WEATHER SERVICE OMAHA NE
400 PM CDT FRI MAY 27 2016

NOTES: SATELLITE DATA IS BEING USED TO AUGMENT CLOUD COVER ABOVE
       12000 FEET.
       "FAIR" INDICATES FEW OR NO CLOUDS BELOW 12,000 FEET WITH NO
       SIGNIFICANT WEATHER AND/OR OBSTRUCTIONS TO VISIBILITY.

  * THESE STATIONS DO NOT REPORT WEATHER SUCH AS RAIN...SNOW OR FOG.

NEZ001>004-019>022-054>056-272200-
NEBRASKA PANHANDLE

CITY           SKY/WX    TMP DP  RH WIND       PRES   REMARKS
SCOTTSBLUFF    CLOUDY    59  44  57 SE7       29.89F
ALLIANCE       PTSUNNY   58  49  72 N12       29.87S
CHADRON        CLOUDY    59  48  67 SE5       29.87F
SIDNEY         CLOUDY    57  46  66 NE15      29.88F
$$

NEZ057>060-069>072-079>082-272200-
SOUTHWEST NEBRASKA

CITY           SKY/WX    TMP DP  RH WIND       PRES   REMARKS
NORTH PLATTE   MOSUNNY   66  54  65 NE17      29.76F
IMPERIAL       LGT RAIN  59  54  83 N9        29.78F
LEXINGTON      CLOUDY    63  57  80 E7        29.75F
MCCOOK         CLOUDY    63  55  75 E14       29.73F
$$

NEZ005>010-023>029-035>040-094-272200-
NORTH CENTRAL NEBRASKA

CITY           SKY/WX    TMP DP  RH WIND       PRES   REMARKS
VALENTINE      CLOUDY    67  48  50 NE13      29.81F
AINSWORTH      CLOUDY    64  52  65 N9G16     29.80F
BROKEN BOW     PTSUNNY   66  56  70 NE7       29.76F
O`NEILL        MOSUNNY   70  59  68 NE9       29.77F
ORD            CLOUDY    72  57  59 N6        29.73F
$$

NEZ041-046>049-061>064-073>077-083>087-272200-
SOUTH CENTRAL NEBRASKA

CITY           SKY/WX    TMP DP  RH WIND       PRES   REMARKS
GRAND ISLAND   CLOUDY    69  57  65 E8        29.73F
HASTINGS       CLOUDY    67  57  70 E8        29.72F
KEARNEY *      CLOUDY    66  55  68 E7        29.74F
YORK           MOSUNNY   72  57  60 SE10      29.72F
$$

NEZ011>018-030>034-042>045-272200-
NORTHEAST NEBRASKA

CITY           SKY/WX    TMP DP  RH WIND       PRES   REMARKS
NORFOLK        SUNNY     74  56  53 CALM      29.72F
ALBION         CLOUDY    73  55  52 N3        29.73F
BLAIR          SUNNY     76  58  51 CALM      29.73F
FREMONT        SUNNY     75  58  55 CALM      29.72F
TEKAMAH        SUNNY     79  55  43 E5        29.71F
$$

NEZ050>053-065>068-078-088>093-272200-
SOUTHEAST NEBRASKA

CITY           SKY/WX    TMP DP  RH WIND       PRES   REMARKS
LINCOLN        CLOUDY    76  60  57 NE7       29.71F
OMAHA EPPLEY   PTSUNNY   78  60  53 NE7       29.72F
FALLS CITY     MOSUNNY   76  65  68 E8        29.71F
PLATTSMOUTH    CLOUDY    76  63  62 E6        29.73F
$$

NEZ044-045-051>053-067-272200-
OMAHA AREA

CITY           SKY/WX    TMP DP  RH WIND       PRES   REMARKS
OMAHA EPPLEY   PTSUNNY   78  60  53 NE7       29.72F
BLAIR          SUNNY     76  58  51 CALM      29.73F
FREMONT        SUNNY     75  58  55 CALM      29.72F
OFFUTT AFB     SUNNY     76  61  60 E5        29.71F
PLATTSMOUTH    CLOUDY    76  63  62 E6        29.73F
$$




USA.gov is the U.S. government's official web portal to all federal, state and local government web resources and services.